960  
ASUS43 KDTX 230210  
RWRMI  
MICHIGAN HOURLY REGIONAL WEATHER ROUNDUP  
NATIONAL WEATHER SERVICE DETROIT/PONTIAC MI  
1000 PM EDT TUE JUN 22 2021  
 
NOTE: "FAIR" INDICATES FEW OR NO CLOUDS BELOW 12,000 FEET WITH NO  
SIGNIFICANT WEATHER AND/OR TO VISIBILITY
.  
 
MIZ047>049-052>055-059>063-066>070-074>076-081>083-230300-  
SOUTHEAST LOWER MICHIGAN  
 
CITY SKY/WX TMP DP RH WIND PRES REMARKS
 
ADRIAN CLEAR 57 47 69 CALM 30.02R  
ALMA CLEAR 54 53 96 CALM 30.00R  
ANN ARBOR CLEAR 50 48 93 CALM 30.01R  
BAD AXE CLEAR 51 46 84 CALM 29.98R  
CARO CLEAR 52 46 80 CALM 29.99R  
DETROIT CITY CLEAR 60 47 61 E3 30.01R  
DETROIT PTCLDY 60 45 57 SE3 30.01R  
FLINT PTCLDY 52 49 89 CALM 30.00R  
GROSSE ILE PTCLDY 58 50 77 E5 30.01R  
HILLSDALE CLEAR 54 47 77 CALM 30.01R  
HOWELL MOCLDY 56 49 76 CALM 30.01R  
 
CITY SKY/WX TMP DP RH WIND PRES REMARKS
 
JACKSON PTCLDY 55 46 71 CALM 30.01R  
LAMBERTVILLE CLEAR 58 49 72 CALM 30.01R  
LANSING CLEAR 59 46 62 CALM 30.00R  
LAPEER CLOUDY 53 52 97 CALM 30.01R  
MASON CLEAR 55 46 71 CALM 30.00R  
MONROE CLEAR 58 47 69 NE3 30.00R  
MT. CLEMENS PTCLDY 55 52 88 CALM 30.00R  
PONTIAC PTCLDY 57 49 74 CALM 30.00R  
PORT HOPE N/A 57 32 38 CALM 29.98R  
PORT HURON CLEAR 52 45 76 CALM 30.02R  
TRI CITIES CLOUDY 57 50 77 S6 29.99R  
MIDLAND MOCLDY 52 51 95 CALM 29.99R  
TROY CLEAR 58 47 66 CALM 30.03R  
SAGINAW HB MOCLDY 56 51 81 S3 29.99R  

 
MIZ043>046-050>051-056>058-064>065-071>073-077>080-230300-  
SOUTHWEST LOWER MICHIGAN  
 
CITY SKY/WX TMP DP RH WIND PRES REMARKS
 
BATTLE CREEK CLEAR 59 44 57 CALM 30.01R  
BENTON HARBOR MOCLDY 60 49 66 CALM 29.99R  
BIG RAPIDS PTCLDY 52 44 73 W3 29.98R  
COLDWATER PTCLDY 56 49 79 CALM 30.01R  
FREMONT FAIR 57 45 62 SW3 29.98S  
HOLLAND PTCLDY 58 46 64 CALM 30.00R  
GRAND RAPIDS PTCLDY 61 42 49 SW5 30.00R  
IONIA FAIR 57 44 61 W5 30.00R  
KALAMAZOO PTCLDY 60 42 51 CALM 30.01R  
LUDINGTON CLEAR 55 47 73 CALM 29.97R  
MARSHALL CLEAR 57 44 61 CALM 30.01R  
MOUNT PLEASANT CLEAR 55 50 83 CALM 29.98R  
MUSKEGON PTCLDY 59 49 69 S3 29.99R  
SOUTH HAVEN MOCLDY 56 51 82 CALM 29.99S  

 
MIZ016>042-230300-  
NORTHERN LOWER MICHIGAN  
 
CITY SKY/WX TMP DP RH WIND PRES REMARKS
 
ALPENA CLOUDY 53 50 89 CALM 29.96R  
BEAVER ISLAND CLEAR 49 46 88 SW5 29.95S  
BELLAIRE PTCLDY 51 47 89 CALM 29.97R  
CADILLAC CLEAR 50 42 75 CALM 29.97R  
CHARLEVOIX CLEAR 53 47 82 CALM 29.96R  
FRANKFORT CLEAR 53 47 81 CALM 29.97R  
GAYLORD CLEAR 53 41 63 W3 29.96R  
GRAYLING PTCLDY 49 46 90 CALM 29.97R  
HARBOR SPRINGS PTCLDY 52 45 78 CALM 29.96R  
HOUGHTON LAKE CLOUDY 54 48 80 S3 29.98R  
MANISTEE CLEAR 53 47 79 CALM 29.97R  
OSCODA PTCLDY 55 45 69 S5 29.97R  
PELLSTON CLOUDY 53 45 74 W3 29.95R  
ROGERS CITY PTCLDY 52 48 89 CALM 29.97R  
TRAVERSE CITY PTCLDY 54 45 71 CALM 29.95R  

 
MIZ007>008-015-230300-  
EASTERN UPPER MICHIGAN  
 
CITY SKY/WX TMP DP RH WIND PRES REMARKS
 
KINROSS CLEAR 52 46 80 SW5 29.94R  
MACKINAC ISLAN LGT RAIN 53 41 65 SW7G18 29.94F  
NEWBERRY PTCLDY 51 50 97 CALM 29.94R  
S. S. MARIE PTCLDY 52 45 77 SW3 29.93R  
MUNISING N/A 53 45 74 CALM 29.92S  

 
MIZ004>006-011>014-085-230300-  
CENTRAL UPPER MICHIGAN  
 
CITY SKY/WX TMP DP RH WIND PRES REMARKS
 
MANISTIQUE PTCLDY 53 49 88 S3 29.94R  
ESCANABA PTCLDY 56 48 74 E6 29.94R  
MENOMINEE CLEAR 56 48 74 CALM 29.93R  
SAWYER-GWINN CLOUDY 55 43 62 S3 29.92R  

 
MIZ001>003-009>011-084-230300-  
WESTERN UPPER MICHIGAN  
 
CITY SKY/WX TMP DP RH WIND PRES REMARKS
 
IRON MOUNTAIN CLOUDY 57 48 72 S3 29.90R  
HOUGHTON CLOUDY 50 46 86 E3 29.88S  
COPPER HARBOR N/A 52 44 74 SW8 29.88S  
IRONWOOD PTCLDY 59 45 59 S6 29.87F  

 
 
ABBREVIATIONS USED IN REMARKS  
TC - TEMPERATURE IN CELSIUS  
WCI - WIND CHILL INDEX  
HX - HEAT INDEX  
VSB - VISIBILITY  
 
 
 
CLICK HERE TO GO TO PREVIOUS BULLETINS.

The Nexlab MI Page Main Text Page